Content
SEND FEEDBACK

Daily
Averages
Monthly
Summary
United States of America

ROCK HILL, NEW YORK


Home > North America > United States > New York
Elevation: 1260 feet     Latitude: 41 35N     Longitude: 074 37W

WEATHER
 
SELECT A DAY
Number of Records: 455,084;   Date Range: 1/1/95 - 12/24/14
 
SHARE

PRINT THIS DATA

[ ← Previous Day ]
WEATHER ALMANAC - JUNE 18, 2014
[ Next Day → ]
[ °C ]   °F
Weather ElementAverageHighLow
Temperature73.9 °F80.6 °F (4:35 pm)64.4 °F (11:35 pm)
Dewpoint62.2 °F66.2 °F (12:35 am)59 °F (5:15 pm)
Humidity67.7 %88 % (11:35 pm)51 % (4:35 pm)
Barometer29.98 in30.06 in (9:55 pm)29.88 in (4:15 am)
Wind Speed11.4 mph24.2 mph (11:15 am)
Wind Gust33.4 mph (10:35 am)
Weather ElementAverage
Visibility10 mi
Wind DirectionWNW (283.1 °)

Weather ElementTotal
Precipitation---
Cooling Degree Days7.5 (Base 65)
Growing Degree Days22.5 (Base 50)
Averaged from 70 records on June 18, 2014
WEATHER CONDITIONS BREAKOUT
WIND DIRECTION BREAKOUT
WEATHER BY HOUR - JUNE 18, 2014
[ °C ]   °F
Local TimeTemperatureDewpointHumidityBarometerVisibilityWind DirectionWind SpeedGust SpeedPrecipitationEventsConditions
12:35 AM73.4 °F66.2 °F78 %29.93 in10.0 miWSW (250°)4.6 mphClear
12:55 AM75.2 °F66.2 °F73 %29.91 in10.0 miWest (260°)5.8 mphPartly Cloudy
1:15 AM75.2 °F66.2 °F73 %29.91 in10.0 miWest (260°)5.8 mphPartly Cloudy
1:35 AM75.2 °F66.2 °F73 %29.91 in10.0 miWest (270°)4.6 mphMostly Cloudy
1:55 AM75.2 °F66.2 °F73 %29.90 in10.0 miWest (270°)6.9 mphPartly Cloudy
2:15 AM75.2 °F66.2 °F73 %29.90 in10.0 miWSW (250°)10.4 mph16.1 mphPartly Cloudy
2:35 AM75.2 °F66.2 °F73 %29.90 in10.0 miWest (260°)10.4 mph16.1 mphMostly Cloudy
2:55 AM75.2 °F66.2 °F73 %29.89 in10.0 miWest (260°)6.9 mphOvercast
3:15 AM75.2 °F66.2 °F73 %29.89 in10.0 miWest (260°)6.9 mphOvercast
3:35 AM75.2 °F66.2 °F73 %29.89 in10.0 miWest (270°)9.2 mph16.1 mphOvercast
3:55 AM75.2 °F64.4 °F69 %29.89 in10.0 miWest (270°)12.7 mph18.4 mphScattered Clouds
4:15 AM75.2 °F64.4 °F69 %29.88 in10.0 miWest (270°)13.8 mph25.3 mphClear
4:35 AM73.4 °F64.4 °F73 %29.88 in10.0 miWest (280°)12.7 mph24.2 mphPartly Cloudy
4:55 AM73.4 °F64.4 °F73 %29.88 in10.0 miWest (280°)16.1 mph24.2 mphScattered Clouds
5:15 AM73.4 °F64.4 °F73 %29.89 in10.0 miWest (280°)10.4 mph24.2 mphMostly Cloudy
5:35 AM73.4 °F64.4 °F73 %29.89 in10.0 miWest (280°)13.8 mph20.7 mphMostly Cloudy
5:55 AM71.6 °F64.4 °F78 %29.89 in10.0 miWNW (290°)12.7 mph21.9 mphMostly Cloudy
6:15 AM71.6 °F64.4 °F78 %29.90 in10.0 miWNW (290°)13.8 mph23.0 mphScattered Clouds
6:35 AM71.6 °F64.4 °F78 %29.90 in10.0 miWNW (290°)17.3 mph23.0 mphScattered Clouds
6:55 AM71.6 °F64.4 °F78 %29.90 in10.0 miWest (280°)20.7 mph31.1 mphClear
7:15 AM71.6 °F62.6 °F73 %29.91 in10.0 miWNW (290°)13.8 mph26.5 mphPartly Cloudy
7:35 AM73.4 °F64.4 °F73 %29.91 in10.0 miWNW (300°)13.8 mph21.9 mphScattered Clouds
7:55 AM71.6 °F64.4 °F78 %29.92 in10.0 miNW (310°)13.8 mph18.4 mphMostly Cloudy
8:15 AM71.6 °F64.4 °F78 %29.93 in10.0 miWNW (300°)15.0 mph20.7 mphMostly Cloudy
8:35 AM71.6 °F62.6 °F73 %29.93 in10.0 miNNW (330°)15.0 mph20.7 mphOvercast
8:55 AM69.8 °F62.6 °F78 %29.96 in10.0 miNW (310°)19.6 mph29.9 mphOvercast
9:15 AM69.8 °F60.8 °F73 %29.96 in10.0 miNW (320°)19.6 mph29.9 mphOvercast
9:55 AM71.6 °F60.8 °F69 %29.98 in10.0 miWNW (290°)17.3 mph26.5 mphMostly Cloudy
10:15 AM71.6 °F60.8 °F69 %29.98 in10.0 miWNW (300°)10.4 mph24.2 mphMostly Cloudy
10:35 AM71.6 °F60.8 °F69 %29.98 in10.0 miNW (310°)20.7 mph33.4 mphMostly Cloudy
10:55 AM73.4 °F60.8 °F65 %29.99 in10.0 miNW (320°)17.3 mph31.1 mphMostly Cloudy
11:15 AM73.4 °F60.8 °F65 %29.99 in10.0 miNNW (340°)24.2 mph29.9 mphMostly Cloudy
11:35 AM73.4 °F60.8 °F65 %30.00 in10.0 miNW (320°)17.3 mph28.8 mphMostly Cloudy
11:55 AM73.4 °F60.8 °F65 %30.02 in10.0 miNW (310°)23.0 mph29.9 mphMostly Cloudy
12:15 PM75.2 °F60.8 °F61 %30.02 in10.0 miNW (310°)19.6 mph26.5 mphMostly Cloudy
12:35 PM75.2 °F60.8 °F61 %30.02 in10.0 miNNW (340°)24.2 mph28.8 mphScattered Clouds
12:55 PM75.2 °F60.8 °F61 %30.02 in10.0 miWNW (290°)17.3 mph25.3 mphPartly Cloudy
1:15 PM75.2 °F60.8 °F61 %30.03 in10.0 miNW (310°)18.4 mph26.5 mphPartly Cloudy
1:35 PM77.0 °F60.8 °F57 %30.02 in10.0 miNW (310°)21.9 mph28.8 mphPartly Cloudy
1:55 PM75.2 °F60.8 °F61 %30.03 in10.0 miNW (320°)18.4 mph24.2 mphClear
2:15 PM77.0 °F60.8 °F57 %30.03 in10.0 miNW (320°)13.8 mph20.7 mphPartly Cloudy
2:35 PM77.0 °F62.6 °F61 %30.01 in10.0 miNNW (330°)18.4 mph24.2 mphClear
2:55 PM78.8 °F60.8 °F54 %30.00 in10.0 miWest (280°)11.5 mphClear
3:15 PM78.8 °F60.8 °F54 %29.99 in10.0 miNW (320°)11.5 mph20.7 mphClear
3:35 PM78.8 °F60.8 °F54 %29.98 in10.0 miNNW (340°)13.8 mph18.4 mphClear
3:55 PM78.8 °F60.8 °F54 %29.99 in10.0 miWNW (300°)8.1 mphClear
4:15 PM78.8 °F60.8 °F54 %30.00 in10.0 miNW (320°)9.2 mphClear
4:35 PM80.6 °F60.8 °F51 %29.99 in10.0 miNW (310°)10.4 mphClear
4:55 PM80.6 °F60.8 °F51 %29.99 in10.0 miNNW (330°)8.1 mphClear
5:15 PM78.8 °F59.0 °F51 %30.00 in10.0 miNW (310°)10.4 mphClear
5:35 PM78.8 °F59.0 °F51 %30.00 in10.0 miWNW (300°)4.6 mphClear
5:55 PM78.8 °F60.8 °F54 %30.00 in10.0 miWest (280°)6.9 mph16.1 mphClear
6:15 PM78.8 °F59.0 °F51 %30.01 in10.0 miWNW (290°)11.5 mphClear
6:35 PM78.8 °F60.8 °F54 %30.01 in10.0 miWNW (300°)9.2 mphClear
6:55 PM77.0 °F60.8 °F57 %30.02 in10.0 miWNW (300°)11.5 mphPartly Cloudy
7:15 PM77.0 °F59.0 °F54 %30.03 in10.0 miWest (280°)9.2 mphClear
7:35 PM75.2 °F60.8 °F61 %30.04 in10.0 miWNW (290°)10.4 mphClear
7:55 PM73.4 °F60.8 °F65 %30.03 in10.0 miWNW (300°)5.8 mphClear
8:15 PM73.4 °F60.8 °F65 %30.03 in10.0 miWNW (300°)4.6 mphClear
8:35 PM71.6 °F60.8 °F69 %30.05 in10.0 miNW (320°)4.6 mphClear
8:55 PM71.6 °F60.8 °F69 %30.05 in10.0 miNW (310°)3.5 mphClear
9:15 PM69.8 °F60.8 °F73 %30.05 in10.0 miNNW (330°)3.5 mphClear
9:35 PM69.8 °F60.8 °F73 %30.05 in10.0 miNorth (360°)4.6 mphMostly Cloudy
9:55 PM68.0 °F60.8 °F78 %30.06 in10.0 miNorth (350°)5.8 mphMostly Cloudy
10:15 PM68.0 °F60.8 °F78 %30.06 in10.0 miNorth (360°)4.6 mphScattered Clouds
10:35 PM66.2 °F60.8 °F83 %30.05 in10.0 miNNW (330°)3.5 mphClear
10:55 PM68.0 °F60.8 °F78 %30.06 in10.0 miCalmPartly Cloudy
11:15 PM66.2 °F60.8 °F83 %30.05 in10.0 miNorth (10°)3.5 mphPartly Cloudy
11:35 PM64.4 °F60.8 °F88 %30.05 in10.0 miCalmClear
11:55 PM66.2 °F60.8 °F83 %30.05 in10.0 miCalmClear
Hourly data recorded from KMSV, located miles away from Rock Hill, New York







STORIES FROM OUR PARTNERS